DW1234 Weather Reports


Display with metric or nautical units.
time (UTC)temp
F
wind
direction
speed
MPH
gust
MPH
rain 1hr
in
rain 24hr
in
rain mn
in
humidity
%
barometer
mb
20260905024549 86 167 4.0 7.0 0.00 0.00 0.00 71 1010.0
20260905024234 87 167 5.0 5.0 0.00 0.00 0.00 71 1013.2
20260905023743 87 197 3.0 6.0 0.00 0.00 0.00 70 1013.1
20260905023254 88 149 4.0 6.0 0.00 0.00 0.00 70 1013.1
20260905023015 87 186 4.0 6.0 0.00 0.00 0.00 70 1010.0
20260905022745 88 163 3.0 5.0 0.00 0.00 0.00 69 1013.0
20260905022225 88 163 4.0 5.0 0.00 0.00 0.00 69 1013.0
20260905021735 88 163 3.0 6.0 0.00 0.00 0.00 69 1013.0
20260905021519 88 163 3.0 7.0 0.00 0.00 0.00 68 1009.9
20260905021249 89 163 4.0 7.0 0.00 0.00 0.00 68 1012.9
20260905020731 89 159 4.0 7.0 0.00 0.00 0.00 68 1012.9
20260905020243 89 163 4.0 7.0 0.00 0.00 0.00 67 1012.8
20260905020048 89 164 4.0 6.0 0.00 0.00 0.00 67 1009.7
20260905015725 90 162 5.0 7.0 0.00 0.00 0.00 67 1012.9
20260905015238 90 155 5.0 7.0 0.00 0.00 0.00 66 1012.8
20260905014806 90 198 4.0 7.0 0.00 0.00 0.00 66 1012.7
20260905014513 90 167 4.0 6.0 0.00 0.00 0.00 65 1009.6
20260905014229 91 165 4.0 6.0 0.00 0.00 0.00 65 1012.7
20260905013741 91 158 3.0 6.0 0.00 0.00 0.00 65 1012.6
20260905013223 91 155 4.0 7.0 0.00 0.00 0.00 64 1012.5
20260905013010 91 163 4.0 8.0 0.00 0.00 0.00 64 1009.3
20260905012755 92 146 5.0 8.0 0.00 0.00 0.00 63 1012.4
20260905012248 92 161 5.0 8.0 0.00 0.00 0.00 63 1012.4
20260905011730 92 142 4.0 8.0 0.00 0.00 0.00 63 1012.4
20260905011556 92 150 4.0 8.0 0.00 0.00 0.00 63 1009.2
20260905011225 93 148 4.0 7.0 0.00 0.00 0.00 62 1012.4
20260905010732 93 141 5.0 7.0 0.00 0.00 0.00 62 1012.4
20260905010245 93 137 3.0 7.0 0.00 0.00 0.00 60 1012.3
20260905010024 93 137 4.0 7.0 0.00 0.00 0.00 60 1009.2
20260905005735 94 139 4.0 7.0 0.00 0.00 0.00 60 1012.3
20260905005247 94 200 2.0 3.0 0.00 0.00 0.00 59 1012.3
20260905004732 94 200 1.0 2.0 0.00 0.00 0.00 59 1012.2
20260905004543 94 200 1.0 2.0 0.00 0.00 0.00 58 1009.2
20260905004247 95 200 1.0 3.0 0.00 0.00 0.00 58 1012.3
20260905003737 95 200 1.0 4.0 0.00 0.00 0.00 58 1012.2
20260905003306 95 200 3.0 4.0 0.00 0.00 0.00 58 1012.2
20260905003052 94 200 2.0 4.0 0.00 0.00 0.00 58 1009.0
20260905002728 95 200 2.0 3.0 0.00 0.00 0.00 58 1012.2
20260905002242 95 200 2.0 3.0 0.00 0.00 0.00 58 1012.1
20260905001752 95 200 0.0 2.0 0.00 0.00 0.00 59 1012.2
20260905001544 95 200 0.0 2.0 0.00 0.00 0.00 59 1009.1
20260905001244 95 200 1.0 3.0 0.00 0.00 0.00 59 1012.2
20260905000726 96 200 1.0 3.0 0.00 0.00 0.00 60 1012.1
20260905000241 96 200 2.0 2.0 0.00 0.00 0.00 59 1012.2
20260905000050 95 200 1.0 3.0 0.00 0.00 0.00 59 1009.1
20260904235747 96 200 1.0 3.0 0.00 0.00 0.00 58 1012.2
20260904235231 96 200 1.0 3.0 0.00 0.00 0.00 58 1012.2
20260904234744 96 200 1.0 4.0 0.00 0.00 0.00 57 1012.2
20260904234552 96 200 1.0 4.0 0.00 0.00 0.00 57 1009.1
20260904234229 97 200 2.0 4.0 0.00 0.00 0.00 56 1012.2
20260904233741 97 200 2.0 4.0 0.00 0.00 0.00 57 1012.2
20260904233224 97 200 1.0 5.0 0.00 0.00 0.00 56 1012.2
20260904233100 97 200 1.0 6.0 0.00 0.00 0.00 56 1009.1
20260904233002 97 200 2.0 6.0 0.00 0.00 0.00 56 1009.1
20260904232735 97 200 3.0 6.0 0.00 0.00 0.00 56 1012.2
20260904232247 98 200 4.0 7.0 0.00 0.00 0.00 56 1012.3
20260904231726 98 196 4.0 8.0 0.00 0.00 0.00 56 1012.3
20260904231510 97 204 5.0 8.0 0.00 0.00 0.00 56 1009.2
20260904231300 98 207 5.0 8.0 0.00 0.00 0.00 56 1012.4
20260904230723 98 175 5.0 7.0 0.00 0.00 0.00 57 1012.4
20260904230235 98 200 4.0 7.0 0.00 0.00 0.00 56 1012.3
20260904230054 97 199 4.0 7.0 0.00 0.00 0.00 57 1009.2
20260904225747 98 198 3.0 4.0 0.00 0.00 0.00 56 1012.3
20260904225230 98 199 2.0 4.0 0.00 0.00 0.00 55 1012.4
20260904224742 98 199 2.0 5.0 0.00 0.00 0.00 54 1012.3
20260904224555 97 199 1.0 5.0 0.00 0.00 0.00 55 1009.1
20260904224228 98 199 2.0 6.0 0.00 0.00 0.00 56 1012.2
20260904223734 98 199 3.0 7.0 0.00 0.00 0.00 55 1012.3
20260904223249 99 199 4.0 7.0 0.00 0.00 0.00 54 1012.3
20260904223020 98 209 4.0 7.0 0.00 0.00 0.00 54 1009.2
20260904222732 99 184 4.0 10.0 0.00 0.00 0.00 54 1012.3
20260904222245 99 202 5.0 11.0 0.00 0.00 0.00 54 1012.4
20260904221727 99 165 5.0 12.0 0.00 0.00 0.00 54 1012.3
20260904221524 98 213 4.0 9.0 0.00 0.00 0.00 53 1009.2
20260904221242 99 223 7.0 9.0 0.00 0.00 0.00 52 1012.3
20260904220722 100 204 5.0 11.0 0.00 0.00 0.00 51 1012.3
20260904220234 100 171 8.0 11.0 0.00 0.00 0.00 51 1012.3
20260904220032 100 175 8.0 11.0 0.00 0.00 0.00 51 1009.0
20260904215742 100 174 8.0 11.0 0.00 0.00 0.00 51 1012.2
20260904215226 100 200 7.0 12.0 0.00 0.00 0.00 53 1012.2
20260904214738 99 184 9.0 12.0 0.00 0.00 0.00 51 1012.2
20260904214535 99 206 7.0 12.0 0.00 0.00 0.00 51 1009.0
20260904214223 100 204 8.0 12.0 0.00 0.00 0.00 51 1012.2
20260904213735 100 199 8.0 12.0 0.00 0.00 0.00 53 1012.2
20260904213247 100 211 6.0 16.0 0.00 0.00 0.00 53 1012.2
20260904213044 99 202 8.0 16.0 0.00 0.00 0.00 52 1009.0
20260904212729 100 170 8.0 16.0 0.00 0.00 0.00 52 1012.2
20260904212241 100 176 8.0 10.0 0.00 0.00 0.00 54 1012.2
20260904211751 99 209 6.0 12.0 0.00 0.00 0.00 54 1012.2
20260904211531 99 211 7.0 12.0 0.00 0.00 0.00 54 1009.1
20260904211244 99 196 7.0 12.0 0.00 0.00 0.00 52 1012.3
20260904210728 99 219 5.0 10.0 0.00 0.00 0.00 52 1012.3
20260904210238 99 153 7.0 10.0 0.00 0.00 0.00 53 1012.3
20260904210046 99 166 7.0 10.0 0.00 0.00 0.00 53 1009.2
20260904205750 99 206 6.0 11.0 0.00 0.00 0.00 52 1012.3
20260904205241 99 202 7.0 12.0 0.00 0.00 0.00 51 1012.3
20260904204726 99 228 6.0 12.0 0.00 0.00 0.00 53 1012.3
20260904204521 99 202 7.0 13.0 0.00 0.00 0.00 50 1009.2
20260904204236 99 192 10.0 13.0 0.00 0.00 0.00 50 1012.3
20260904203746 100 204 7.0 14.0 0.00 0.00 0.00 52 1012.3
20260904203230 100 202 8.0 12.0 0.00 0.00 0.00 50 1012.4
20260904203027 100 193 7.0 12.0 0.00 0.00 0.00 51 1009.3
20260904202743 100 188 9.0 11.0 0.00 0.00 0.00 53 1012.5
20260904202227 100 213 6.0 11.0 0.00 0.00 0.00 51 1012.5
20260904201738 100 166 6.0 11.0 0.00 0.00 0.00 51 1012.5
20260904201521 99 202 9.0 12.0 0.00 0.00 0.00 51 1009.4
20260904201251 100 165 8.0 12.0 0.00 0.00 0.00 52 1012.5
20260904200731 100 198 7.0 11.0 0.00 0.00 0.00 52 1012.6
20260904200300 100 215 7.0 12.0 0.00 0.00 0.00 51 1012.6
20260904200007 100 200 8.0 12.0 0.00 0.00 0.00 52 1009.5
20260904195722 100 160 5.0 9.0 0.00 0.00 0.00 52 1012.6
20260904195232 100 202 6.0 14.0 0.00 0.00 0.00 52 1012.6
20260904194746 99 154 9.0 14.0 0.00 0.00 0.00 54 1012.7
20260904194514 99 205 6.0 10.0 0.00 0.00 0.00 53 1009.6
20260904194229 100 216 7.0 11.0 0.00 0.00 0.00 54 1012.7
20260904193739 100 205 4.0 11.0 0.00 0.00 0.00 52 1012.7
20260904193229 100 207 8.0 11.0 0.00 0.00 0.00 53 1012.7
20260904193054 99 221 7.0 12.0 0.00 0.00 0.00 52 1009.6
20260904192756 99 199 6.0 12.0 0.00 0.00 0.00 56 1012.7
20260904192246 99 174 8.0 12.0 0.00 0.00 0.00 55 1012.8
20260904191729 99 172 7.0 12.0 0.00 0.00 0.00 54 1012.7
20260904191532 98 157 6.0 11.0 0.00 0.00 0.00 54 1009.7
20260904191241 98 186 5.0 11.0 0.00 0.00 0.00 53 1012.9
20260904190810 98 201 7.0 11.0 0.00 0.00 0.00 57 1012.9
20260904190232 98 165 7.0 10.0 0.00 0.00 0.00 57 1013.0
20260904190005 97 158 5.0 10.0 0.00 0.00 0.00 54 1009.9
20260904185743 98 198 5.0 10.0 0.00 0.00 0.00 55 1013.0
20260904185249 98 195 7.0 10.0 0.00 0.00 0.00 54 1013.1
20260904184740 98 199 7.0 10.0 0.00 0.00 0.00 55 1013.1
20260904184533 97 160 6.0 10.0 0.00 0.00 0.00 54 1010.0
20260904184252 98 223 7.0 10.0 0.00 0.00 0.00 57 1013.2
20260904183733 97 169 8.0 11.0 0.00 0.00 0.00 56 1013.1
20260904183306 97 214 6.0 10.0 0.00 0.00 0.00 56 1013.1
20260904183009 97 170 5.0 10.0 0.00 0.00 0.00 56 1010.0
20260904182726 97 211 7.0 10.0 0.00 0.00 0.00 57 1013.1
20260904182233 97 207 6.0 10.0 0.00 0.00 0.00 55 1013.2
20260904181745 97 211 8.0 10.0 0.00 0.00 0.00 56 1013.2
20260904181515 97 224 5.0 11.0 0.00 0.00 0.00 57 1010.2
20260904181228 97 180 6.0 9.0 0.00 0.00 0.00 57 1013.2
20260904180800 97 217 6.0 10.0 0.00 0.00 0.00 56 1013.2
20260904180222 96 220 4.0 10.0 0.00 0.00 0.00 56 1013.3
20260904180054 96 242 4.0 10.0 0.00 0.00 0.00 55 1010.2
20260904175733 97 209 7.0 10.0 0.00 0.00 0.00 55 1013.2
20260904175246 97 210 4.0 11.0 0.00 0.00 0.00 56 1013.3
20260904174728 97 206 7.0 10.0 0.00 0.00 0.00 57 1013.3
20260904174607 96 228 3.0 9.0 0.00 0.00 0.00 58 1010.2
20260904174501 96 227 3.0 9.0 0.00 0.00 0.00 57 1010.3
20260904174256 96 204 4.0 9.0 0.00 0.00 0.00 56 1013.3
20260904173745 96 208 6.0 10.0 0.00 0.00 0.00 56 1013.3
20260904173234 96 205 6.0 10.0 0.00 0.00 0.00 58 1013.3
20260904173025 95 199 2.0 10.0 0.00 0.00 0.00 60 1010.3
20260904172744 95 177 5.0 10.0 0.00 0.00 0.00 58 1013.3
20260904172226 95 199 6.0 10.0 0.00 0.00 0.00 58 1013.3
20260904171738 94 194 8.0 10.0 0.00 0.00 0.00 61 1013.3
20260904171529 93 212 3.0 10.0 0.00 0.00 0.00 62 1010.3
20260904171246 93 146 5.0 10.0 0.00 0.00 0.00 61 1013.3
20260904170729 93 164 7.0 10.0 0.00 0.00 0.00 60 1013.3
20260904170240 93 164 5.0 10.0 0.00 0.00 0.00 62 1013.3
20260904170027 92 153 5.0 10.0 0.00 0.00 0.00 62 1010.3
20260904165723 93 158 4.0 10.0 0.00 0.00 0.00 60 1013.3
20260904165236 93 220 5.0 12.0 0.00 0.00 0.00 61 1013.3
20260904164747 93 143 5.0 11.0 0.00 0.00 0.00 62 1013.3
20260904164530 92 219 3.0 11.0 0.00 0.00 0.00 63 1010.3
20260904164231 92 234 8.0 11.0 0.00 0.00 0.00 62 1013.3
20260904163740 93 211 6.0 12.0 0.00 0.00 0.00 64 1013.2
20260904163223 92 200 5.0 10.0 0.00 0.00 0.00 64 1013.2
20260904163031 91 192 4.0 11.0 0.00 0.00 0.00 63 1010.2
20260904162750 92 207 7.0 11.0 0.00 0.00 0.00 62 1013.3
20260904162234 92 226 6.0 11.0 0.00 0.00 0.00 61 1013.2
20260904161744 92 209 7.0 12.0 0.00 0.00 0.00 61 1013.3
20260904161511 92 221 6.0 10.0 0.00 0.00 0.00 61 1010.3
20260904161227 92 225 7.0 10.0 0.00 0.00 0.00 63 1013.3
20260904160735 92 202 6.0 10.0 0.00 0.00 0.00 64 1013.3
20260904160307 91 173 5.0 10.0 0.00 0.00 0.00 65 1013.3
20260904160049 91 200 4.0 9.0 0.00 0.00 0.00 64 1010.3
20260904155725 91 172 6.0 10.0 0.00 0.00 0.00 64 1013.3
20260904155237 90 199 8.0 10.0 0.00 0.00 0.00 66 1013.3
20260904154747 90 179 7.0 10.0 0.00 0.00 0.00 65 1013.4
20260904154533 89 174 7.0 10.0 0.00 0.00 0.00 65 1010.4
20260904154238 89 182 6.0 12.0 0.00 0.00 0.00 65 1013.3
20260904153806 89 184 7.0 12.0 0.00 0.00 0.00 66 1013.2
20260904153228 88 173 7.0 11.0 0.00 0.00 0.00 68 1013.4
20260904153006 88 186 7.0 11.0 0.00 0.00 0.00 68 1010.4
20260904152739 88 198 8.0 12.0 0.00 0.00 0.00 69 1013.2
20260904152308 88 199 7.0 11.0 0.00 0.00 0.00 68 1013.2
20260904151732 87 224 6.0 10.0 0.00 0.00 0.00 69 1013.2
20260904151548 87 176 5.0 10.0 0.00 0.00 0.00 68 1010.3
20260904151245 87 213 6.0 10.0 0.00 0.00 0.00 67 1013.2
20260904150727 87 213 8.0 12.0 0.00 0.00 0.00 67 1013.2
20260904150239 88 221 6.0 12.0 0.00 0.00 0.00 66 1013.3
20260904150049 87 210 6.0 11.0 0.00 0.00 0.00 66 1010.3
20260904145722 88 155 6.0 11.0 0.00 0.00 0.00 68 1013.3
20260904145234 88 199 7.0 11.0 0.00 0.00 0.00 70 1013.3
20260904144742 87 159 6.0 10.0 0.00 0.00 0.00 69 1013.3
20260904144550 87 188 5.0 10.0 0.00 0.00 0.00 69 1010.3
20260904144225 87 171 6.0 10.0 0.00 0.00 0.00 70 1013.4
20260904143754 86 184 7.0 12.0 0.00 0.00 0.00 70 1013.4
20260904143244 86 179 6.0 11.0 0.00 0.00 0.00 71 1013.3
20260904143010 85 200 6.0 11.0 0.00 0.00 0.00 70 1010.5
20260904142754 85 153 7.0 11.0 0.00 0.00 0.00 70 1013.3
20260904142244 85 197 6.0 10.0 0.00 0.00 0.00 72 1013.4
20260904141727 85 161 6.0 9.0 0.00 0.00 0.00 73 1013.4
20260904141549 84 183 4.0 9.0 0.00 0.00 0.00 73 1010.5
20260904141235 84 202 4.0 9.0 0.00 0.00 0.00 73 1013.4
20260904140745 84 158 6.0 9.0 0.00 0.00 0.00 73 1013.3
20260904140235 83 161 5.0 9.0 0.00 0.00 0.00 74 1013.3
20260904140022 82 184 5.0 10.0 0.00 0.00 0.00 74 1010.5
20260904135748 83 180 7.0 10.0 0.00 0.00 0.00 75 1013.3
20260904135231 82 203 7.0 9.0 0.00 0.00 0.00 76 1013.2
20260904134804 82 170 7.0 9.0 0.00 0.00 0.00 77 1013.2
20260904134554 81 192 5.0 9.0 0.00 0.00 0.00 77 1010.3
20260904134228 81 171 7.0 11.0 0.00 0.00 0.00 78 1013.1
20260904133734 80 178 6.0 11.0 0.00 0.00 0.00 78 1013.0
20260904133245 80 171 7.0 10.0 0.00 0.00 0.00 78 1013.0
20260904133058 79 175 7.0 10.0 0.00 0.00 0.00 78 1010.2
20260904133001 79 181 6.0 11.0 0.00 0.00 0.00 78 1010.1
20260904132728 80 186 7.0 10.0 0.00 0.00 0.00 79 1013.0
20260904132300 79 165 7.0 10.0 0.00 0.00 0.00 80 1013.0
20260904131723 79 159 7.0 11.0 0.00 0.00 0.00 81 1012.9
20260904131557 78 150 6.0 11.0 0.00 0.00 0.00 81 1010.1
20260904131256 78 160 6.0 11.0 0.00 0.00 0.00 81 1012.8
20260904130742 78 178 6.0 11.0 0.00 0.00 0.00 82 1012.8
20260904130228 78 181 6.0 11.0 0.00 0.00 0.00 82 1012.7
20260904130034 77 156 6.0 11.0 0.00 0.00 0.00 83 1009.9
20260904125739 77 155 7.0 10.0 0.00 0.00 0.00 83 1012.8
20260904125230 77 155 6.0 9.0 0.00 0.00 0.00 83 1012.7
20260904124742 77 159 6.0 9.0 0.00 0.00 0.00 83 1012.5
20260904124509 76 148 6.0 9.0 0.00 0.00 0.00 83 1009.7
20260904124225 77 155 6.0 8.0 0.00 0.00 0.00 82 1012.6
20260904123754 76 160 6.0 8.0 0.00 0.00 0.00 82 1012.6
20260904123241 76 168 5.0 6.0 0.00 0.00 0.00 82 1012.6
20260904123018 76 175 4.0 6.0 0.00 0.00 0.00 82 1009.7
20260904122722 76 160 5.0 7.0 0.00 0.00 0.00 82 1012.5
20260904122254 76 156 4.0 7.0 0.00 0.00 0.00 81 1012.4
20260904121745 76 153 4.0 5.0 0.00 0.00 0.00 81 1012.4
20260904121543 76 152 4.0 6.0 0.00 0.00 0.00 81 1009.5
20260904121258 77 165 4.0 5.0 0.00 0.00 0.00 81 1012.4
20260904120746 77 165 3.0 5.0 0.00 0.00 0.00 80 1012.4
20260904120226 77 165 3.0 5.0 0.00 0.00 0.00 80 1012.3
20260904120021 76 165 2.0 5.0 0.00 0.00 0.00 80 1009.5
20260904115737 77 159 4.0 5.0 0.00 0.00 0.00 80 1012.3
20260904115249 77 194 3.0 4.0 0.00 0.00 0.00 79 1012.2
20260904114729 77 194 3.0 4.0 0.00 0.00 0.00 79 1012.1
20260904114524 77 194 2.0 4.0 0.00 0.00 0.00 79 1009.2
20260904114243 77 194 3.0 4.0 0.00 0.00 0.00 79 1012.1
20260904113726 77 194 3.0 5.0 0.00 0.00 0.00 79 1012.1
20260904113239 77 194 3.0 5.0 0.00 0.00 0.00 79 1012.0
20260904113025 77 194 3.0 5.0 0.00 0.00 0.00 79 1009.1
20260904112721 77 169 4.0 6.0 0.00 0.00 0.00 79 1012.0
20260904112230 78 167 4.0 6.0 0.00 0.00 0.00 79 1012.0
20260904111800 78 175 5.0 6.0 0.00 0.00 0.00 78 1012.0
20260904111556 77 170 3.0 5.0 0.00 0.00 0.00 78 1009.1
20260904111234 78 178 4.0 5.0 0.00 0.00 0.00 78 1011.9
20260904110805 78 165 4.0 6.0 0.00 0.01 0.00 78 1011.9
20260904110228 78 193 5.0 7.0 0.00 0.01 0.00 78 1011.9
20260904110024 78 180 4.0 6.0 0.00 0.01 0.00 77 1009.1
20260904105800 78 176 4.0 8.0 0.00 0.01 0.00 77 1012.0
20260904105248 78 201 4.0 8.0 0.00 0.01 0.00 77 1011.9
20260904104738 78 164 4.0 7.0 0.00 0.01 0.00 77 1011.9
20260904104524 78 173 4.0 7.0 0.00 0.01 0.00 77 1009.0
20260904104222 79 200 4.0 8.0 0.00 0.01 0.00 77 1011.9
20260904103732 79 200 4.0 8.0 0.00 0.01 0.00 77 1011.9
20260904103245 79 200 4.0 8.0 0.00 0.01 0.00 77 1011.9
20260904103033 78 200 4.0 8.0 0.00 0.01 0.00 77 1009.1
20260904102726 79 198 5.0 9.0 0.00 0.01 0.00 77 1011.9
20260904102238 79 191 5.0 9.0 0.00 0.01 0.00 77 1011.9
20260904101746 79 188 6.0 9.0 0.00 0.01 0.00 76 1011.8
20260904101529 79 196 6.0 9.0 0.00 0.01 0.00 76 1009.0
20260904101230 79 193 6.0 10.0 0.00 0.01 0.00 76 1011.8
20260904100739 79 206 5.0 10.0 0.00 0.01 0.00 76 1011.8
20260904100225 79 181 6.0 11.0 0.00 0.01 0.00 76 1011.8
20260904100026 79 205 5.0 11.0 0.00 0.01 0.00 76 1008.9
20260904095756 79 185 7.0 11.0 0.00 0.01 0.00 75 1011.7
20260904095247 79 184 7.0 13.0 0.00 0.01 0.00 75 1011.8
20260904094731 79 219 8.0 13.0 0.00 0.01 0.00 75 1011.7
20260904094509 79 189 8.0 16.0 0.00 0.01 0.00 75 1008.8
20260904094300 79 182 8.0 16.0 0.00 0.01 0.00 75 1011.7
20260904093722 80 188 8.0 13.0 0.00 0.01 0.00 75 1011.6
20260904093233 80 176 8.0 14.0 0.00 0.01 0.00 75 1011.6
20260904093050 79 171 8.0 14.0 0.00 0.01 0.00 75 1008.7
20260904092806 79 200 9.0 14.0 0.00 0.01 0.00 75 1011.6
20260904092227 79 194 9.0 15.0 0.00 0.01 0.00 75 1011.4
20260904091737 79 203 8.0 13.0 0.00 0.01 0.00 75 1011.4
20260904091524 79 210 8.0 13.0 0.00 0.01 0.00 75 1008.6
20260904091310 79 202 7.0 13.0 0.00 0.01 0.00 75 1011.4
20260904090724 79 190 7.0 15.0 0.00 0.01 0.00 75 1011.4
20260904090255 79 178 9.0 14.0 0.00 0.01 0.00 75 1011.4
20260904090049 79 214 7.0 14.0 0.00 0.01 0.00 75 1008.5
20260904085747 79 175 8.0 12.0 0.00 0.01 0.00 75 1011.3
20260904085232 79 181 8.0 12.0 0.00 0.01 0.00 75 1011.4
20260904084744 79 202 8.0 12.0 0.00 0.01 0.00 75 1011.3
20260904084548 79 208 7.0 12.0 0.00 0.01 0.00 75 1008.5
20260904084228 79 169 8.0 12.0 0.00 0.01 0.00 75 1011.3
20260904083738 79 194 8.0 12.0 0.00 0.01 0.00 75 1011.3
20260904083247 79 207 8.0 13.0 0.00 0.01 0.00 75 1011.3
20260904083102 78 223 8.0 13.0 0.00 0.01 0.00 75 1008.4
20260904082738 79 165 9.0 14.0 0.00 0.01 0.00 75 1011.2
20260904082249 79 202 9.0 13.0 0.00 0.01 0.00 75 1011.2
20260904081741 79 178 9.0 13.0 0.00 0.01 0.00 75 1011.3
20260904081521 78 178 8.0 13.0 0.00 0.01 0.00 74 1008.4
20260904081227 79 188 8.0 13.0 0.00 0.01 0.00 75 1011.3
20260904080737 79 212 7.0 13.0 0.00 0.01 0.00 74 1011.3
20260904080249 79 179 7.0 12.0 0.00 0.01 0.00 74 1011.3
20260904080023 78 202 7.0 14.0 0.00 0.01 0.00 74 1008.5
20260904075732 79 225 8.0 12.0 0.00 0.01 0.00 74 1011.4
20260904075240 79 222 6.0 10.0 0.00 0.01 0.00 73 1011.4
20260904074725 79 198 7.0 11.0 0.00 0.01 0.00 73 1011.5
20260904074546 79 202 6.0 11.0 0.00 0.01 0.00 73 1008.6
20260904074238 79 173 7.0 11.0 0.00 0.01 0.00 73 1011.4
20260904073809 79 180 8.0 12.0 0.00 0.01 0.00 73 1011.4
20260904073232 80 180 8.0 11.0 0.00 0.01 0.00 72 1011.4
20260904073016 79 165 7.0 11.0 0.00 0.01 0.00 72 1008.6
20260904072743 80 173 8.0 11.0 0.00 0.01 0.00 72 1011.3
20260904072225 80 173 7.0 11.0 0.00 0.01 0.00 72 1011.4
20260904071732 80 202 8.0 13.0 0.00 0.01 0.00 71 1011.4
20260904071511 80 193 8.0 15.0 0.00 0.01 0.00 71 1008.6
20260904071245 80 187 8.0 15.0 0.00 0.01 0.00 71 1011.4
20260904070726 80 205 9.0 16.0 0.00 0.01 0.00 71 1011.3
20260904070237 81 166 9.0 16.0 0.00 0.01 0.00 71 1011.3
20260904070007 80 160 8.0 16.0 0.00 0.01 0.00 70 1008.4
20260904065746 81 136 9.0 14.0 0.00 0.01 0.00 70 1011.3
20260904065227 81 181 9.0 14.0 0.00 0.01 0.00 70 1011.3
20260904064740 81 188 7.0 14.0 0.00 0.01 0.00 70 1011.3
20260904064515 81 200 8.0 18.0 0.00 0.01 0.00 70 1008.5
20260904064252 81 173 8.0 18.0 0.00 0.01 0.00 70 1011.4
20260904063738 81 188 10.0 20.0 0.00 0.01 0.00 69 1011.3
20260904063252 81 193 10.0 20.0 0.00 0.01 0.00 69 1011.4
20260904063043 81 164 10.0 20.0 0.00 0.01 0.00 69 1008.5
20260904062743 81 178 10.0 17.0 0.00 0.01 0.00 69 1011.3
20260904062225 81 162 9.0 14.0 0.00 0.01 0.00 69 1011.3
20260904061736 82 201 9.0 16.0 0.00 0.01 0.00 69 1011.3
20260904061541 81 191 7.0 17.0 0.00 0.01 0.00 69 1008.4
20260904061245 82 182 9.0 17.0 0.00 0.01 0.00 69 1011.3
20260904060726 82 209 10.0 17.0 0.00 0.01 0.00 69 1011.3
20260904060234 82 200 9.0 16.0 0.00 0.01 0.00 69 1011.2
20260904060045 81 184 8.0 16.0 0.00 0.01 0.00 69 1008.3
20260904055745 82 178 10.0 16.0 0.00 0.01 0.00 69 1011.2
20260904055229 82 165 11.0 16.0 0.00 0.01 0.00 69 1011.0
20260904054740 82 166 11.0 17.0 0.00 0.01 0.00 69 1011.0
20260904054542 81 173 10.0 17.0 0.00 0.01 0.00 69 1008.1
20260904054231 82 170 10.0 15.0 0.00 0.01 0.00 69 1011.0
20260904053740 82 148 10.0 15.0 0.00 0.01 0.00 69 1011.0
20260904053255 82 173 10.0 16.0 0.00 0.01 0.00 69 1011.0
20260904053059 81 202 10.0 15.0 0.00 0.01 0.00 69 1008.1
20260904053001 81 161 9.0 14.0 0.00 0.01 0.00 69 1008.1
20260904052742 82 150 9.0 14.0 0.00 0.01 0.00 69 1011.0
20260904052224 82 150 11.0 17.0 0.00 0.01 0.00 69 1010.9
20260904051735 82 145 10.0 16.0 0.00 0.01 0.00 69 1010.9
20260904051508 82 146 10.0 16.0 0.00 0.01 0.00 69 1008.1
20260904051249 82 188 11.0 16.0 0.00 0.01 0.00 69 1010.9
20260904050731 82 148 9.0 17.0 0.00 0.01 0.01 69 1011.0
20260904050222 82 166 10.0 16.0 0.00 0.01 0.01 69 1010.9
20260904050051 82 150 9.0 17.0 0.00 0.01 0.01 69 1008.1
20260904045733 82 143 10.0 17.0 0.00 0.01 0.01 68 1010.9
20260904045248 82 139 11.0 17.0 0.00 0.01 0.01 69 1010.9
20260904044727 83 160 9.0 16.0 0.00 0.01 0.01 68 1010.9
20260904044607 82 156 9.0 16.0 0.00 0.01 0.01 68 1008.0
20260904044240 83 159 10.0 15.0 0.00 0.01 0.01 68 1010.9
20260904043722 83 159 10.0 15.0 0.00 0.01 0.01 68 1010.8
20260904043233 83 147 10.0 15.0 0.00 0.01 0.01 68 1010.9
20260904043101 82 150 9.0 15.0 0.00 0.01 0.01 68 1008.0
20260904042745 83 138 11.0 15.0 0.00 0.01 0.01 68 1010.9
20260904042227 83 167 9.0 14.0 0.00 0.01 0.01 68 1010.9
20260904041737 83 165 10.0 15.0 0.00 0.01 0.01 67 1010.9
20260904041605 83 149 8.0 15.0 0.00 0.01 0.01 67 1008.0
20260904041507 83 130 8.0 15.0 0.00 0.01 0.01 67 1008.0
20260904041223 83 176 8.0 15.0 0.00 0.01 0.01 67 1010.9
20260904040729 84 172 8.0 15.0 0.00 0.01 0.01 67 1010.9
20260904040303 84 163 9.0 15.0 0.00 0.01 0.01 67 1010.9
20260904040100 83 158 9.0 15.0 0.00 0.01 0.01 67 1008.0
20260904035725 84 157 9.0 15.0 0.00 0.01 0.01 67 1011.0
20260904035237 84 152 10.0 16.0 0.00 0.01 0.01 66 1010.9
20260904034749 84 150 10.0 16.0 0.00 0.01 0.01 66 1011.0
20260904034559 84 163 8.0 15.0 0.00 0.01 0.01 66 1008.1
20260904034233 84 148 10.0 15.0 0.00 0.01 0.01 66 1011.0
20260904033803 85 198 9.0 16.0 0.00 0.01 0.01 66 1011.0
20260904033221 85 154 10.0 15.0 0.00 0.01 0.01 66 1010.9
20260904033027 84 146 10.0 15.0 0.00 0.01 0.01 66 1008.0
20260904032753 85 132 11.0 18.0 0.00 0.01 0.01 65 1010.9
20260904032244 85 151 10.0 18.0 0.00 0.01 0.01 65 1011.0
20260904031730 85 165 12.0 19.0 0.00 0.01 0.01 65 1010.9
20260904031508 85 148 10.0 17.0 0.00 0.01 0.01 65 1007.9
20260904031243 85 134 11.0 17.0 0.00 0.01 0.01 65 1010.9
20260904030723 85 133 12.0 17.0 0.00 0.01 0.01 65 1010.8
20260904030255 85 132 10.0 17.0 0.00 0.01 0.01 65 1010.7
20260904030046 85 153 8.0 15.0 0.00 0.01 0.01 65 1007.7
20260904025741 85 150 10.0 15.0 0.00 0.01 0.01 65 1010.7
20260904025227 86 138 11.0 19.0 0.00 0.01 0.01 65 1010.7
20260904024740 86 144 10.0 19.0 0.00 0.01 0.01 65 1010.7